Погода Токо

Погода Токо : погода сейчас, прогноз погоды и архив. Всё, что Вы хотите узнать о погоде Токо!

Хотите узнать прогноз погоды Токо? Тогда Вам сюда: Погода Токо

Поиск расширенной информации на нашем сайте:

Другие новости

Новости СМИ2

Главная страница сайта

Новости сайта

03.07.2017

Напоминаем, что на нашем специализированном сайте Метеоцентр.Азия вы можете получить высокодетализированные автоматические прогнозы погоды по пунктам России, СНГ и мира в авиационном формате (включающие направление и скорость ветра, видимость, явления погоды, количество и форму облачности, нижнюю и верхнюю границу облачности).


Погода Токо - сегодня

Время (UTC), дата Ветер
(°,м/с) 
Видим.   Явления Облачность Т
(°С)
Тd
(°С)
f(%) Тe
(°С)
Pmin
(гПа)
dP
(гПа)
Po
(мм)
O2
(г/м3)
Тmin Tmax R s Состояние
почвы
18 18.05.18 тихо ()   20000 м    ясно 
-6.5 -7 96 -7  1017.5  1.7  685  283           
06 19.05.18 180 (Ю) 20000 м    9/4 600 м средняя 
[Sc|Ac und]
+16.2 +2.1 39 +16  1007  -1.5  684  260           
18 19.05.18 320 (СЗ) 20000 м    6/0 средняя 
[Ac trans]
-2.9 -6.3 77 -2  1009.8  -2  681  278           
00 20.05.18 230 (ЮЗ) 20000 м    9/9 600 м 
[Sc]
+8.7 +6.4 85 +9  1007.6  2.3  683  265  -3.2        влажная 
06 20.05.18 320 (СЗ) 20000 м    9/9 600 м 
[Sc]
+12.3 +0.6 45 +12  1013  5.4  687  265           
12 20.05.18 320 (СЗ) 20000 м    1/0 верхняя 
[Ci]
+9.6 -3.8 39 +11  1015.7  1.8  688  268    +14.3       
18 20.05.18 тихо ()   20000 м    ясно 
-6.5 -7.3 94 -7  1025.8  3.5  691  286           
00 21.05.18 320 (СЗ) 20000 м    3/0 верхняя 
[Ci]
+8.7 -1.2 50 +9  1020.1  0.3  691  270  -8.2        влажная 
06 21.05.18 230 (ЮЗ) 20000 м    8/0 верхняя 
[Cs]
+16.9 -0.7 30 +18  1012.1  -4.7  688  261           
12 21.05.18 180 (Ю) 20000 м    8/0 средняя, верхняя 
[Ac trans|Cs]
+15 -1.9 31 +16  1003.7  -5.4  684  261    +19.1       
18 21.05.18 180 (Ю) 20000 м    9/9 600 м 
[Sc]
+2.1 -1 80 +3  1008.3  -2.8  681  272           
06 22.05.18 230 (ЮЗ) 20000 м    9/3 600 м средняя 
[Sc|Ac und]
+20.5 +5.3 37 +21  991.8  -4.4             
18 22.05.18 180 (Ю) 20000 м    8/0 средняя 
[Ac trans]
+5.4 +2.5 82 +6  996.6  1.2             
06 23.05.18 140 (ЮВ) 20000 м    9/3 600 м средняя, верхняя 
[Sc|Ac lent|Ci sp]
+17.2 +8 55 +17  990.4  -0.1             
18 23.05.18 090 (В) 20000 м    9/9 600 м 
[Sc]
+8 +3.2 72 +7  997.7  2.5  676  264           
06 24.05.18 050 (СВ) 20000 м    9/3 600 м средняя, верхняя 
[Sc|Ac und|Ci sp]
+16.9 +3.8 42 +17  997  0.7  677  256           
18 24.05.18 140 (ЮВ) 20000 м    9/9 600 м 
[Sc]
+4.4 +3.7 95 +5  1007.1  1.9  741  293           
06 25.05.18 140 (ЮВ) 20000 м    9/9 600 м 
[Sc]
+12.7 -1.7 37 +11  1007.8  1.7  684  263           
12 25.05.18 140 (ЮВ) 20000 м    ясно 
+11.6 -3.6 34 +12  1011.3  2.9  686  265    +15       
18 25.05.18 тихо ()   20000 м    4/0 средняя 
[Ac trans]
+5.3 +1.2 75 +5  1015.1  1.4  687  271           
00 26.05.18 320 (СЗ) 20000 м    ясно 
+11.1 +0 46 +12  1015.8  2.5  689  266  -4.6        влажная 
06 26.05.18 360 (С) 20000 м    1/0 верхняя 
[Ci sp]
+18.9 -1.2 26 +20  1010.4  -2.5  687  259           
12 26.05.18 180 (Ю) 20000 м    ясно 
+18 -1.7 26 +19  1008.7  -1.8  686  259    +21.8       
18 26.05.18 180 (Ю) 20000 м    ясно 
+8.3 +3 69 +9  1010.4  -1.4  684  267           
00 27.05.18 тихо ()   20000 м    ясно 
+16.2 +1.9 38 +16  1008.5  0.7  685  260  -1.8        сухая 
Время (UTC), дата Ветер
(°,м/с) 
Видим.   Явления Облачность Т
(°С)
Тd
(°С)
f(%) Тe
(°С)
Pmin
(гПа)
dP
(гПа)
Po
(мм)
O2
(г/м3)
Тmin Tmax R s Состояние
почвы

Для получения пояснительной информации подведите курсор к названию столбца.

ПОГОДА Токо - архив

Всё, что Вы хотите узнать о погоде Токо - удобно и подробно!

Выберите нужную дату (начиная с 1 января 2015* года) и нажмите кнопку "Найти".
Будут отображены архивные сводки погоды по пункту Токо, начиная с указанной даты.


Отображать данные в формате CSV (для использования в таблицах Excel)


Внимание! Наш архив погоды предназначен исключительно для личного некоммерческого использования в познавательных целях. Если Вам необходимы официальные справки о состоянии погоды (для производственных, юридических, коммерческих и т.п. целей), обращайтесь в органы Росгидромета.

*Примечание: данная дата относится к архиву по метеостанциям СССР (Россия, СНГ, Балтия).
Архив по метеостанциям Зарубежной Европы и Азии (кроме Китая) хранится 10 дней, по другим регионам земного шара (Китай, Африка, Америка, Австралия, Океания) - 1 день.

Токо - район местоположения метеостанции


Название, широта, долгота, высота метеостанции:
Токо 56.3°ш. 131.1°д. 850 м над ур. моря [Российская Федерация]

Дополнительная информация

В oтличие oт бoльшинства пoгoдных сайтoв мы публикуем пoдрoбную метеoинфoрмацию в детальнoм прoфессиoнальнoм фoрмате.

Характеристики температуры и влажнoсти вoздуха измеряются на высoте 2 м в тени вдали oт зданий и деревьев.
Скoрoсть ветра измеряется на высoте 10 м (на урoвне рoста челoвека скoрoсть ветра ниже в 1.5-2 раза). Если метеoстанция нахoдится в гoрoде или в лесу, тo скoрoсть ветра занижена на 2-4 м/с пo сравнению с oткрытым местoм. Скoрoсть ветра над акватoриями крупных рек и oзёр, а также на вершинах хoлмoв на 2-5 м/с выше, чем в oбычных услoвиях.
Атмoсфернoе давление в разных тoчках местнoсти мoжет значительнo oтличаться oт давления на метеoстанции, в зависимoсти oт услoвий рельефа (при пoдъёме на 10 м давление пoнижается примернo на 1 мм рт.ст.).